PIMOHWEATHER Station Historical Data
Daily Summary for February 13, 2020 Units:  Metric    English   Both
Daily Weekly Monthly Yearly
  High: Low: Average:
Temperature: 30.0 °C 22.0 °C 26 °C
Dew Point: 24.0 °C 20.0 °C 21.4 °C
Humidity: 88% 67% 76%
Wind Speed: 23km/h 0km/h 7.1km/h
Wind Gust: 28km/h - -
Wind- - South
Pressure: 1016.6 hPa 1013.2 hPa -
Precipitation: 0.00 mm    
 
 
Tabular Data for February 13, 2020
Time Temperature Dew Point Pressure Wind Wind Speed Wind Gust Humidity Rainfall Rate (Hourly) solar
00:04 25.0 °C 20.0 °C 1015.9 hPa Calm     72% 0.00 mm 0.00 W/m2
00:09 25.0 °C 20.0 °C 1015.9 hPa Calm     73% 0.00 mm 0.00 W/m2
00:14 25.0 °C 20.0 °C 1015.6 hPa Calm     73% 0.00 mm 0.00 W/m2
00:19 25.0 °C 20.0 °C 1015.6 hPa Calm     74% 0.00 mm 0.00 W/m2
00:24 25.0 °C 20.0 °C 1015.9 hPa Calm   4 km/h 73% 0.00 mm 0.00 W/m2
00:29 25.0 °C 20.0 °C 1015.6 hPa SE 3 km/h 4 km/h 73% 0.00 mm 0.00 W/m2
00:34 25.0 °C 20.0 °C 1015.6 hPa SE 2 km/h 4 km/h 73% 0.00 mm 0.00 W/m2
00:39 25.0 °C 20.0 °C 1015.6 hPa South 1 km/h 4 km/h 73% 0.00 mm 0.00 W/m2
00:44 25.0 °C 20.0 °C 1015.2 hPa South 3 km/h 4 km/h 73% 0.00 mm 0.00 W/m2
00:49 25.0 °C 20.0 °C 1015.2 hPa SE 3 km/h 4 km/h 74% 0.00 mm 0.00 W/m2
00:54 25.0 °C 20.0 °C 1015.2 hPa SE 3 km/h 4 km/h 74% 0.00 mm 0.00 W/m2
00:59 25.0 °C 20.0 °C 1015.2 hPa SSE 4 km/h 8 km/h 74% 0.00 mm 0.00 W/m2
01:04 25.0 °C 21.0 °C 1015.2 hPa Calm     75% 0.00 mm 0.00 W/m2
01:09 25.0 °C 21.0 °C 1015.2 hPa Calm     76% 0.00 mm 0.00 W/m2
01:14 25.0 °C 21.0 °C 1015.2 hPa Calm     76% 0.00 mm 0.00 W/m2
01:19 25.0 °C 21.0 °C 1015.2 hPa Calm     76% 0.00 mm 0.00 W/m2
01:24 25.0 °C 20.0 °C 1015.2 hPa Calm     77% 0.00 mm 0.00 W/m2
01:29 25.0 °C 20.0 °C 1015.2 hPa NW 4 km/h 12 km/h 76% 0.00 mm 0.00 W/m2
01:34 25.0 °C 20.0 °C 1015.2 hPa NW 4 km/h 4 km/h 76% 0.00 mm 0.00 W/m2
01:39 25.0 °C 20.0 °C 1015.2 hPa Calm   4 km/h 75% 0.00 mm 0.00 W/m2
01:44 25.0 °C 20.0 °C 1015.2 hPa Calm     76% 0.00 mm 0.00 W/m2
01:49 25.0 °C 20.0 °C 1014.9 hPa Calm     76% 0.00 mm 0.00 W/m2
01:54 25.0 °C 20.0 °C 1014.9 hPa North 1 km/h 4 km/h 76% 0.00 mm 0.00 W/m2
01:59 25.0 °C 20.0 °C 1014.9 hPa North 4 km/h 4 km/h 76% 0.00 mm 0.00 W/m2
02:04 25.0 °C 20.0 °C 1014.9 hPa North 4 km/h 4 km/h 76% 0.00 mm 0.00 W/m2
02:09 25.0 °C 20.0 °C 1014.9 hPa NNW 3 km/h 4 km/h 76% 0.00 mm 0.00 W/m2
02:14 25.0 °C 20.0 °C 1014.9 hPa North 4 km/h 4 km/h 76% 0.00 mm 0.00 W/m2
02:19 25.0 °C 20.0 °C 1014.9 hPa North 5 km/h 8 km/h 78% 0.00 mm 0.00 W/m2
02:24 24.0 °C 20.0 °C 1014.6 hPa North 3 km/h 4 km/h 78% 0.00 mm 0.00 W/m2
02:29 24.0 °C 21.0 °C 1014.6 hPa North 4 km/h 4 km/h 79% 0.00 mm 0.00 W/m2
02:34 24.0 °C 21.0 °C 1014.6 hPa NNW 5 km/h 8 km/h 81% 0.00 mm 0.00 W/m2
02:39 24.0 °C 21.0 °C 1014.6 hPa NNW 4 km/h 4 km/h 81% 0.00 mm 0.00 W/m2
02:44 24.0 °C 21.0 °C 1014.2 hPa NNW 3 km/h 4 km/h 81% 0.00 mm 0.00 W/m2
02:49 24.0 °C 21.0 °C 1014.2 hPa NNW 4 km/h 4 km/h 82% 0.00 mm 0.00 W/m2
02:54 24.0 °C 21.0 °C 1014.2 hPa North 5 km/h 8 km/h 83% 0.00 mm 0.00 W/m2
02:59 24.0 °C 21.0 °C 1014.2 hPa North 4 km/h 8 km/h 83% 0.00 mm 0.00 W/m2
03:04 24.0 °C 21.0 °C 1014.2 hPa NNE 4 km/h 4 km/h 83% 0.00 mm 0.00 W/m2
03:09 24.0 °C 21.0 °C 1014.2 hPa NNE 4 km/h 4 km/h 83% 0.00 mm 0.00 W/m2
03:14 24.0 °C 21.0 °C 1014.2 hPa North 5 km/h 8 km/h 83% 0.00 mm 0.00 W/m2
03:19 24.0 °C 20.0 °C 1014.2 hPa North 6 km/h 8 km/h 82% 0.00 mm 0.00 W/m2
03:24 24.0 °C 20.0 °C 1014.2 hPa NNE 6 km/h 8 km/h 82% 0.00 mm 0.00 W/m2
03:29 24.0 °C 20.0 °C 1014.2 hPa NNE 6 km/h 8 km/h 81% 0.00 mm 0.00 W/m2
03:34 23.0 °C 20.0 °C 1014.2 hPa North 3 km/h 4 km/h 82% 0.00 mm 0.00 W/m2
03:39 24.0 °C 20.0 °C 1014.2 hPa North 1 km/h 4 km/h 81% 0.00 mm 0.00 W/m2
03:44 24.0 °C 20.0 °C 1014.6 hPa North 5 km/h 8 km/h 81% 0.00 mm 0.00 W/m2
03:49 24.0 °C 20.0 °C 1014.6 hPa North 7 km/h 8 km/h 81% 0.00 mm 0.00 W/m2
03:54 23.0 °C 20.0 °C 1014.6 hPa NNE 8 km/h 12 km/h 82% 0.00 mm 0.00 W/m2
03:59 23.0 °C 20.0 °C 1014.6 hPa NNE 4 km/h 8 km/h 82% 0.00 mm 0.00 W/m2
04:04 23.0 °C 20.0 °C 1014.6 hPa North 6 km/h 8 km/h 83% 0.00 mm 0.00 W/m2
04:09 23.0 °C 20.0 °C 1014.6 hPa North 4 km/h 4 km/h 83% 0.00 mm 0.00 W/m2
04:14 23.0 °C 20.0 °C 1014.6 hPa NW 5 km/h 8 km/h 83% 0.00 mm 0.00 W/m2
04:19 23.0 °C 20.0 °C 1014.6 hPa NW 5 km/h 8 km/h 84% 0.00 mm 0.00 W/m2
04:24 23.0 °C 20.0 °C 1014.6 hPa NW 7 km/h 8 km/h 84% 0.00 mm 0.00 W/m2
04:29 23.0 °C 20.0 °C 1014.6 hPa North 7 km/h 8 km/h 84% 0.00 mm 0.00 W/m2
04:34 23.0 °C 20.0 °C 1014.6 hPa North 10 km/h 16 km/h 85% 0.00 mm 0.00 W/m2
04:39 23.0 °C 20.0 °C 1014.6 hPa NNW 8 km/h 12 km/h 85% 0.00 mm 0.00 W/m2
04:44 23.0 °C 20.0 °C 1014.6 hPa NNW 10 km/h 12 km/h 85% 0.00 mm 0.00 W/m2
04:49 23.0 °C 20.0 °C 1014.6 hPa North 9 km/h 12 km/h 85% 0.00 mm 0.00 W/m2
04:54 23.0 °C 20.0 °C 1014.6 hPa North 8 km/h 12 km/h 85% 0.00 mm 0.00 W/m2
04:59 23.0 °C 20.0 °C 1014.6 hPa North 8 km/h 8 km/h 85% 0.00 mm 0.00 W/m2
05:04 23.0 °C 20.0 °C 1014.9 hPa NNW 7 km/h 8 km/h 85% 0.00 mm 0.00 W/m2
05:09 23.0 °C 20.0 °C 1014.9 hPa NW 6 km/h 8 km/h 85% 0.00 mm 0.00 W/m2
05:14 23.0 °C 20.0 °C 1015.2 hPa NNW 9 km/h 12 km/h 85% 0.00 mm 0.00 W/m2
05:19 22.0 °C 20.0 °C 1015.2 hPa North 9 km/h 12 km/h 85% 0.00 mm 0.00 W/m2
05:24 22.0 °C 20.0 °C 1015.2 hPa North 9 km/h 12 km/h 86% 0.00 mm 0.00 W/m2
05:29 23.0 °C 20.0 °C 1015.2 hPa NNE 6 km/h 8 km/h 86% 0.00 mm 0.00 W/m2
05:34 23.0 °C 20.0 °C 1015.2 hPa North 6 km/h 8 km/h 85% 0.00 mm 0.00 W/m2
05:39 23.0 °C 20.0 °C 1015.2 hPa NNW 5 km/h 8 km/h 85% 0.00 mm 0.00 W/m2
05:44 23.0 °C 20.0 °C 1015.6 hPa North 8 km/h 8 km/h 85% 0.00 mm 0.00 W/m2
05:49 22.0 °C 20.0 °C 1015.6 hPa North 8 km/h 12 km/h 85% 0.00 mm 0.00 W/m2
05:54 22.0 °C 20.0 °C 1015.6 hPa North 9 km/h 12 km/h 85% 0.00 mm 0.00 W/m2
05:59 23.0 °C 20.0 °C 1015.9 hPa North 5 km/h 12 km/h 86% 0.00 mm 0.00 W/m2
06:04 23.0 °C 20.0 °C 1015.6 hPa North 5 km/h 12 km/h 85% 0.00 mm 0.00 W/m2
06:09 23.0 °C 20.0 °C 1015.6 hPa NNW 1 km/h 4 km/h 85% 0.00 mm 0.00 W/m2
06:14 23.0 °C 20.0 °C 1015.9 hPa NNW 4 km/h 8 km/h 85% 0.00 mm 0.00 W/m2
06:19 23.0 °C 20.0 °C 1015.9 hPa NNW 5 km/h 8 km/h 85% 0.00 mm 0.00 W/m2
06:24 23.0 °C 20.0 °C 1015.9 hPa WNW 1 km/h 4 km/h 85% 0.00 mm 0.33 W/m2
06:29 23.0 °C 20.0 °C 1015.9 hPa WNW 3 km/h 4 km/h 84% 0.00 mm 3.25 W/m2
06:34 23.0 °C 20.0 °C 1015.9 hPa NW 4 km/h 4 km/h 84% 0.00 mm 5.78 W/m2
06:39 23.0 °C 20.0 °C 1015.9 hPa North 7 km/h 8 km/h 84% 0.00 mm 10.02 W/m2
06:44 23.0 °C 20.0 °C 1015.9 hPa North 3 km/h 4 km/h 84% 0.00 mm 13.47 W/m2
06:49 23.0 °C 20.0 °C 1016.3 hPa North 4 km/h 8 km/h 84% 0.00 mm 16.63 W/m2
06:54 23.0 °C 20.0 °C 1016.3 hPa North 1 km/h 4 km/h 84% 0.00 mm 23.35 W/m2
06:59 23.0 °C 20.0 °C 1016.3 hPa NNE 3 km/h 4 km/h 83% 0.00 mm 31.26 W/m2
07:04 23.0 °C 20.0 °C 1015.9 hPa North 2 km/h 4 km/h 83% 0.00 mm 38.83 W/m2
07:09 24.0 °C 20.0 °C 1015.9 hPa Calm   4 km/h 82% 0.00 mm 43.88 W/m2
07:14 24.0 °C 20.0 °C 1015.9 hPa NW 5 km/h 8 km/h 82% 0.00 mm 44.52 W/m2
07:19 24.0 °C 20.0 °C 1015.9 hPa NNW 4 km/h 8 km/h 82% 0.00 mm 52.38 W/m2
07:24 24.0 °C 20.0 °C 1016.6 hPa NW 4 km/h 4 km/h 82% 0.00 mm 55.71 W/m2
07:29 24.0 °C 21.0 °C 1016.6 hPa NNW 1 km/h 4 km/h 82% 0.00 mm 59.53 W/m2
07:34 24.0 °C 21.0 °C 1016.6 hPa Calm     82% 0.00 mm 59.59 W/m2
07:39 24.0 °C 21.0 °C 1016.6 hPa North 5 km/h 8 km/h 81% 0.00 mm 63.47 W/m2
07:44 24.0 °C 21.0 °C 1016.6 hPa NNW 5 km/h 8 km/h 81% 0.00 mm 63.53 W/m2
07:49 24.0 °C 21.0 °C 1016.6 hPa North 1 km/h 4 km/h 81% 0.00 mm 65.93 W/m2
07:54 24.0 °C 21.0 °C 1016.6 hPa NW 5 km/h 8 km/h 81% 0.00 mm 79.88 W/m2
07:59 24.0 °C 21.0 °C 1016.6 hPa NW 6 km/h 8 km/h 81% 0.00 mm 95.98 W/m2
08:04 24.0 °C 21.0 °C 1016.6 hPa NNW 5 km/h 8 km/h 81% 0.00 mm 104.84 W/m2
08:09 24.0 °C 21.0 °C 1016.6 hPa NNW 4 km/h 8 km/h 80% 0.00 mm 90.48 W/m2
08:14 25.0 °C 21.0 °C 1016.6 hPa Calm     80% 0.00 mm 104.32 W/m2
08:19 25.0 °C 21.0 °C 1016.6 hPa WNW 5 km/h 8 km/h 79% 0.00 mm 111.71 W/m2
08:24 25.0 °C 21.0 °C 1016.6 hPa NW 6 km/h 8 km/h 79% 0.00 mm 119.66 W/m2
08:29 25.0 °C 21.0 °C 1016.6 hPa NW 8 km/h 8 km/h 78% 0.00 mm 142.88 W/m2
08:34 26.0 °C 21.0 °C 1016.6 hPa NW 8 km/h 12 km/h 78% 0.00 mm 141.71 W/m2
08:39 25.0 °C 21.0 °C 1016.6 hPa NW 6 km/h 12 km/h 78% 0.00 mm 136.20 W/m2
08:44 25.0 °C 21.0 °C 1016.6 hPa NW 6 km/h 8 km/h 78% 0.00 mm 169.26 W/m2
08:49 25.0 °C 21.0 °C 1016.6 hPa NW 10 km/h 12 km/h 78% 0.00 mm 198.23 W/m2
08:54 26.0 °C 21.0 °C 1016.6 hPa NW 8 km/h 12 km/h 77% 0.00 mm 255.90 W/m2
08:59 27.0 °C 22.0 °C 1016.6 hPa WNW 6 km/h 8 km/h 76% 0.00 mm 244.18 W/m2
09:04 27.0 °C 22.0 °C 1016.6 hPa West 5 km/h 8 km/h 74% 0.00 mm 223.92 W/m2
09:09 28.0 °C 22.0 °C 1016.6 hPa NW 8 km/h 12 km/h 72% 0.00 mm 226.83 W/m2
09:14 27.0 °C 22.0 °C 1016.6 hPa NNW 6 km/h 12 km/h 72% 0.00 mm 224.41 W/m2
09:19 27.0 °C 22.0 °C 1016.6 hPa NW 8 km/h 12 km/h 72% 0.00 mm 214.82 W/m2
09:24 28.0 °C 22.0 °C 1016.6 hPa NNW 9 km/h 12 km/h 72% 0.00 mm 217.68 W/m2
09:29 28.0 °C 22.0 °C 1016.6 hPa NW 10 km/h 12 km/h 71% 0.00 mm 222.06 W/m2
09:34 28.0 °C 22.0 °C 1016.6 hPa NNW 13 km/h 16 km/h 72% 0.00 mm 234.61 W/m2
09:39 28.0 °C 22.0 °C 1016.6 hPa NW 11 km/h 20 km/h 71% 0.00 mm 286.65 W/m2
09:44 28.0 °C 22.0 °C 1016.6 hPa WNW 8 km/h 8 km/h 71% 0.00 mm 169.85 W/m2
09:49 28.0 °C 22.0 °C 1016.6 hPa NNE 5 km/h 8 km/h 70% 0.00 mm 171.54 W/m2
09:54 28.0 °C 22.0 °C 1016.6 hPa WNW 6 km/h 8 km/h 69% 0.00 mm 181.54 W/m2
09:59 29.0 °C 22.0 °C 1016.6 hPa NW 10 km/h 12 km/h 69% 0.00 mm 210.12 W/m2
10:04 28.0 °C 22.0 °C 1016.3 hPa NNW 11 km/h 12 km/h 68% 0.00 mm 285.41 W/m2
10:09 29.0 °C 22.0 °C 1016.3 hPa NNE 5 km/h 8 km/h 68% 0.00 mm 432.21 W/m2
10:14 29.0 °C 22.0 °C 1016.3 hPa North 16 km/h 20 km/h 67% 0.00 mm 226.05 W/m2
10:19 29.0 °C 22.0 °C 1016.3 hPa NNW 10 km/h 12 km/h 67% 0.00 mm 316.85 W/m2
10:24 29.0 °C 22.0 °C 1016.3 hPa NW 12 km/h 12 km/h 67% 0.00 mm 406.89 W/m2
10:29 29.0 °C 23.0 °C 1016.3 hPa NNW 17 km/h 20 km/h 71% 0.00 mm 167.40 W/m2
10:34 29.0 °C 23.0 °C 1016.3 hPa NW 18 km/h 20 km/h 74% 0.00 mm 118.15 W/m2
10:39 28.0 °C 23.0 °C 1016.3 hPa NNW 17 km/h 20 km/h 74% 0.00 mm 95.29 W/m2
10:44 28.0 °C 23.0 °C 1015.9 hPa NW 19 km/h 24 km/h 75% 0.00 mm 78.64 W/m2
10:49 28.0 °C 23.0 °C 1015.9 hPa NW 17 km/h 20 km/h 74% 0.00 mm 57.10 W/m2
10:54 28.0 °C 22.0 °C 1015.9 hPa NW 14 km/h 20 km/h 74% 0.00 mm 65.34 W/m2
10:59 27.0 °C 22.0 °C 1015.9 hPa NW 15 km/h 20 km/h 74% 0.00 mm 64.93 W/m2
11:04 27.0 °C 22.0 °C 1015.9 hPa NW 16 km/h 20 km/h 74% 0.00 mm 58.93 W/m2
11:09 27.0 °C 22.0 °C 1015.9 hPa NW 18 km/h 20 km/h 76% 0.00 mm 44.76 W/m2
11:14 27.0 °C 23.0 °C 1015.9 hPa NW 14 km/h 20 km/h 77% 0.00 mm 55.09 W/m2
11:19 27.0 °C 23.0 °C 1015.9 hPa NW 10 km/h 12 km/h 78% 0.00 mm 71.18 W/m2
11:24 27.0 °C 23.0 °C 1015.9 hPa South 4 km/h 8 km/h 79% 0.00 mm 101.41 W/m2
11:29 27.0 °C 23.0 °C 1015.9 hPa South 4 km/h 8 km/h 80% 0.00 mm 109.00 W/m2
11:34 27.0 °C 23.0 °C 1015.9 hPa SE 15 km/h 16 km/h 83% 0.00 mm 77.49 W/m2
11:39 26.0 °C 24.0 °C 1015.9 hPa SE 15 km/h 20 km/h 86% 0.00 mm 84.46 W/m2
11:44 26.0 °C 24.0 °C 1015.9 hPa SE 11 km/h 12 km/h 87% 0.00 mm 135.49 W/m2
11:49 26.0 °C 24.0 °C 1015.9 hPa SSE 6 km/h 8 km/h 88% 0.00 mm 163.80 W/m2
11:54 26.0 °C 23.0 °C 1015.9 hPa South 4 km/h 8 km/h 87% 0.00 mm 190.94 W/m2
11:59 26.0 °C 23.0 °C 1015.9 hPa SSE 5 km/h 8 km/h 87% 0.00 mm 192.60 W/m2
12:04 26.0 °C 23.0 °C 1015.6 hPa SSE 9 km/h 12 km/h 87% 0.00 mm 295.31 W/m2
12:09 26.0 °C 23.0 °C 1015.6 hPa SE 10 km/h 12 km/h 86% 0.00 mm 299.89 W/m2
12:14 26.0 °C 23.0 °C 1015.6 hPa SE 11 km/h 12 km/h 87% 0.00 mm 263.79 W/m2
12:19 26.0 °C 23.0 °C 1015.6 hPa SSE 10 km/h 12 km/h 87% 0.00 mm 262.90 W/m2
12:24 26.0 °C 23.0 °C 1015.6 hPa SSE 7 km/h 8 km/h 85% 0.00 mm 308.26 W/m2
12:29 27.0 °C 23.0 °C 1015.6 hPa SSE 8 km/h 12 km/h 82% 0.00 mm 297.42 W/m2
12:34 27.0 °C 23.0 °C 1015.2 hPa SE 14 km/h 16 km/h 83% 0.00 mm 340.85 W/m2
12:39 27.0 °C 24.0 °C 1015.2 hPa SSE 9 km/h 12 km/h 83% 0.00 mm 376.89 W/m2
12:44 27.0 °C 24.0 °C 1015.2 hPa SE 11 km/h 20 km/h 80% 0.00 mm 280.72 W/m2
12:49 27.0 °C 23.0 °C 1015.2 hPa SSE 10 km/h 12 km/h 80% 0.00 mm 223.00 W/m2
12:54 27.0 °C 23.0 °C 1014.9 hPa SSE 13 km/h 16 km/h 79% 0.00 mm 202.35 W/m2
12:59 27.0 °C 23.0 °C 1014.9 hPa SE 19 km/h 20 km/h 80% 0.00 mm 163.31 W/m2
13:04 27.0 °C 23.0 °C 1014.9 hPa SE 15 km/h 20 km/h 80% 0.00 mm 231.50 W/m2
13:09 27.0 °C 23.0 °C 1014.9 hPa SE 18 km/h 20 km/h 80% 0.00 mm 439.01 W/m2
13:14 27.0 °C 23.0 °C 1014.9 hPa SE 20 km/h 24 km/h 82% 0.00 mm 239.34 W/m2
13:19 27.0 °C 24.0 °C 1014.9 hPa SE 23 km/h 28 km/h 85% 0.00 mm 168.20 W/m2
13:24 27.0 °C 24.0 °C 1014.6 hPa SSE 18 km/h 24 km/h 85% 0.00 mm 164.90 W/m2
13:29 27.0 °C 24.0 °C 1014.6 hPa SE 14 km/h 20 km/h 85% 0.00 mm 166.81 W/m2
13:34 26.0 °C 24.0 °C 1014.6 hPa SE 15 km/h 20 km/h 85% 0.00 mm 173.03 W/m2
13:39 26.0 °C 24.0 °C 1014.2 hPa SE 20 km/h 24 km/h 86% 0.00 mm 210.73 W/m2
13:44 26.0 °C 24.0 °C 1014.2 hPa SE 19 km/h 24 km/h 87% 0.00 mm 249.17 W/m2
13:49 26.0 °C 24.0 °C 1014.2 hPa SE 17 km/h 20 km/h 87% 0.00 mm 247.86 W/m2
13:54 26.0 °C 23.0 °C 1014.2 hPa ESE 18 km/h 20 km/h 86% 0.00 mm 209.56 W/m2
13:59 26.0 °C 24.0 °C 1014.2 hPa SE 18 km/h 24 km/h 86% 0.00 mm 208.16 W/m2
14:04 26.0 °C 24.0 °C 1014.2 hPa SE 15 km/h 20 km/h 85% 0.00 mm 208.28 W/m2
14:09 26.0 °C 24.0 °C 1014.2 hPa SE 16 km/h 20 km/h 85% 0.00 mm 219.47 W/m2
14:14 27.0 °C 24.0 °C 1014.2 hPa SE 15 km/h 20 km/h 85% 0.00 mm 218.95 W/m2
14:19 26.0 °C 24.0 °C 1013.9 hPa SE 18 km/h 24 km/h 84% 0.00 mm 178.01 W/m2
14:24 27.0 °C 24.0 °C 1013.9 hPa SE 10 km/h 16 km/h 82% 0.00 mm 223.21 W/m2
14:29 27.0 °C 24.0 °C 1013.6 hPa ESE 13 km/h 16 km/h 80% 0.00 mm 223.94 W/m2
14:34 28.0 °C 23.0 °C 1013.6 hPa ESE 10 km/h 16 km/h 79% 0.00 mm 250.86 W/m2
14:39 28.0 °C 23.0 °C 1013.6 hPa ENE 10 km/h 12 km/h 77% 0.00 mm 238.77 W/m2
14:44 28.0 °C 24.0 °C 1013.6 hPa ESE 13 km/h 16 km/h 77% 0.00 mm 538.03 W/m2
14:49 28.0 °C 24.0 °C 1013.6 hPa SE 19 km/h 24 km/h 77% 0.00 mm 373.87 W/m2
14:54 29.0 °C 24.0 °C 1013.6 hPa ESE 9 km/h 12 km/h 76% 0.00 mm 445.20 W/m2
14:59 29.0 °C 24.0 °C 1013.6 hPa ESE 9 km/h 12 km/h 76% 0.00 mm 280.97 W/m2
15:04 29.0 °C 24.0 °C 1013.6 hPa ESE 9 km/h 12 km/h 74% 0.00 mm 273.03 W/m2
15:09 29.0 °C 24.0 °C 1013.6 hPa NNE 9 km/h 16 km/h 74% 0.00 mm 266.98 W/m2
15:14 29.0 °C 24.0 °C 1013.6 hPa SSW 9 km/h 12 km/h 73% 0.00 mm 362.40 W/m2
15:19 30.0 °C 24.0 °C 1013.2 hPa ESE 13 km/h 16 km/h 73% 0.00 mm 522.05 W/m2
15:24 30.0 °C 24.0 °C 1013.2 hPa ESE 11 km/h 20 km/h 72% 0.00 mm 529.39 W/m2
15:29 30.0 °C 24.0 °C 1013.2 hPa ESE 13 km/h 16 km/h 71% 0.00 mm 351.49 W/m2
15:34 30.0 °C 24.0 °C 1013.2 hPa East 13 km/h 16 km/h 71% 0.00 mm 429.27 W/m2
15:39 30.0 °C 24.0 °C 1013.2 hPa East 10 km/h 16 km/h 71% 0.00 mm 225.78 W/m2
15:44 30.0 °C 24.0 °C 1013.2 hPa East 12 km/h 20 km/h 72% 0.00 mm 193.58 W/m2
15:49 29.0 °C 24.0 °C 1013.6 hPa NE 8 km/h 12 km/h 72% 0.00 mm 252.30 W/m2
15:54 30.0 °C 24.0 °C 1013.6 hPa WSW 6 km/h 8 km/h 72% 0.00 mm 417.26 W/m2
15:59 30.0 °C 24.0 °C 1013.6 hPa East 8 km/h 12 km/h 69% 0.00 mm 442.73 W/m2
16:04 30.0 °C 24.0 °C 1013.6 hPa SE 12 km/h 20 km/h 71% 0.00 mm 191.23 W/m2
16:09 29.0 °C 23.0 °C 1013.6 hPa NE 17 km/h 24 km/h 70% 0.00 mm 153.68 W/m2
16:14 29.0 °C 23.0 °C 1013.6 hPa ESE 11 km/h 24 km/h 68% 0.00 mm 110.64 W/m2
16:19 29.0 °C 23.0 °C 1013.6 hPa NE 12 km/h 16 km/h 69% 0.00 mm 109.15 W/m2
16:24 29.0 °C 23.0 °C 1013.9 hPa ESE 10 km/h 12 km/h 69% 0.00 mm 96.24 W/m2
16:29 29.0 °C 23.0 °C 1013.6 hPa NE 15 km/h 16 km/h 68% 0.00 mm 89.85 W/m2
16:34 29.0 °C 23.0 °C 1013.9 hPa NE 16 km/h 20 km/h 69% 0.00 mm 86.87 W/m2
16:39 29.0 °C 22.0 °C 1013.9 hPa NE 10 km/h 16 km/h 69% 0.00 mm 86.68 W/m2
16:44 29.0 °C 22.0 °C 1013.9 hPa NE 15 km/h 16 km/h 69% 0.00 mm 91.36 W/m2
16:49 28.0 °C 22.0 °C 1013.9 hPa NE 10 km/h 12 km/h 69% 0.00 mm 116.48 W/m2
16:54 29.0 °C 22.0 °C 1013.9 hPa ENE 10 km/h 12 km/h 68% 0.00 mm 110.72 W/m2
16:59 29.0 °C 22.0 °C 1013.9 hPa East 8 km/h 16 km/h 67% 0.00 mm 122.06 W/m2
17:04 29.0 °C 22.0 °C 1013.9 hPa NNE 9 km/h 16 km/h 67% 0.00 mm 86.14 W/m2
17:09 29.0 °C 22.0 °C 1013.6 hPa NE 6 km/h 16 km/h 67% 0.00 mm 76.60 W/m2
17:14 29.0 °C 22.0 °C 1013.9 hPa ENE 13 km/h 24 km/h 67% 0.00 mm 62.88 W/m2
17:19 28.0 °C 22.0 °C 1013.9 hPa ESE 11 km/h 12 km/h 68% 0.00 mm 50.13 W/m2
17:24 28.0 °C 22.0 °C 1013.9 hPa ENE 10 km/h 12 km/h 68% 0.00 mm 45.72 W/m2
17:29 28.0 °C 22.0 °C 1013.9 hPa NNE 10 km/h 12 km/h 68% 0.00 mm 40.79 W/m2
17:34 28.0 °C 22.0 °C 1013.9 hPa ESE 6 km/h 12 km/h 68% 0.00 mm 33.46 W/m2
17:39 28.0 °C 22.0 °C 1013.9 hPa East 9 km/h 12 km/h 68% 0.00 mm 20.11 W/m2
17:44 28.0 °C 22.0 °C 1013.9 hPa East 7 km/h 12 km/h 68% 0.00 mm 11.93 W/m2
17:49 28.0 °C 22.0 °C 1013.9 hPa ESE 10 km/h 12 km/h 68% 0.00 mm 6.66 W/m2
17:54 28.0 °C 22.0 °C 1013.9 hPa SE 6 km/h 8 km/h 68% 0.00 mm 3.72 W/m2
17:59 28.0 °C 22.0 °C 1013.9 hPa ESE 7 km/h 8 km/h 68% 0.00 mm 1.32 W/m2
18:04 28.0 °C 21.0 °C 1013.9 hPa SSE 8 km/h 12 km/h 68% 0.00 mm 0.00 W/m2
18:09 28.0 °C 21.0 °C 1013.9 hPa SE 9 km/h 12 km/h 68% 0.00 mm 0.00 W/m2
18:14 28.0 °C 21.0 °C 1013.9 hPa NE 7 km/h 8 km/h 68% 0.00 mm 0.00 W/m2
18:19 28.0 °C 21.0 °C 1013.9 hPa SW 5 km/h 8 km/h 68% 0.00 mm 0.00 W/m2
18:24 28.0 °C 21.0 °C 1013.9 hPa East 5 km/h 8 km/h 68% 0.00 mm 0.00 W/m2
18:29 28.0 °C 21.0 °C 1013.9 hPa East 6 km/h 8 km/h 68% 0.00 mm 0.00 W/m2
18:34 28.0 °C 21.0 °C 1013.9 hPa SE 7 km/h 8 km/h 68% 0.00 mm 0.00 W/m2
18:39 28.0 °C 21.0 °C 1014.2 hPa ESE 4 km/h 8 km/h 68% 0.00 mm 0.00 W/m2
18:44 28.0 °C 21.0 °C 1014.2 hPa ENE 13 km/h 16 km/h 68% 0.00 mm 0.00 W/m2
18:49 28.0 °C 21.0 °C 1014.2 hPa ESE 5 km/h 8 km/h 68% 0.00 mm 0.00 W/m2
18:54 27.0 °C 21.0 °C 1014.2 hPa ESE 8 km/h 8 km/h 68% 0.00 mm 0.00 W/m2
18:59 27.0 °C 21.0 °C 1014.2 hPa ESE 6 km/h 8 km/h 68% 0.00 mm 0.00 W/m2
19:04 27.0 °C 21.0 °C 1014.2 hPa ESE 6 km/h 8 km/h 69% 0.00 mm 0.00 W/m2
19:09 27.0 °C 21.0 °C 1014.2 hPa SE 3 km/h 4 km/h 69% 0.00 mm 0.00 W/m2
19:14 27.0 °C 21.0 °C 1014.2 hPa East 3 km/h 4 km/h 69% 0.00 mm 0.00 W/m2
19:19 27.0 °C 21.0 °C 1014.2 hPa ESE 7 km/h 8 km/h 68% 0.00 mm 0.00 W/m2
19:24 27.0 °C 21.0 °C 1014.2 hPa East 5 km/h 8 km/h 69% 0.00 mm 0.00 W/m2
19:29 27.0 °C 21.0 °C 1014.2 hPa East 7 km/h 12 km/h 68% 0.00 mm 0.00 W/m2
19:34 27.0 °C 21.0 °C 1014.2 hPa ESE 5 km/h 8 km/h 68% 0.00 mm 0.00 W/m2
19:39 27.0 °C 21.0 °C 1014.2 hPa SE 3 km/h 8 km/h 69% 0.00 mm 0.00 W/m2
19:44 27.0 °C 21.0 °C 1014.2 hPa South 3 km/h 8 km/h 69% 0.00 mm 0.00 W/m2
19:49 27.0 °C 21.0 °C 1014.2 hPa ESE 5 km/h 8 km/h 68% 0.00 mm 0.00 W/m2
19:54 27.0 °C 21.0 °C 1014.2 hPa WNW 5 km/h 8 km/h 68% 0.00 mm 0.00 W/m2
19:59 27.0 °C 21.0 °C 1014.2 hPa SSW 4 km/h 8 km/h 68% 0.00 mm 0.00 W/m2
20:04 27.0 °C 20.0 °C 1014.2 hPa SE 4 km/h 4 km/h 68% 0.00 mm 0.00 W/m2
20:09 27.0 °C 20.0 °C 1014.2 hPa East 5 km/h 8 km/h 68% 0.00 mm 0.00 W/m2
20:14 27.0 °C 20.0 °C 1014.6 hPa North 2 km/h 8 km/h 68% 0.00 mm 0.00 W/m2
20:19 27.0 °C 20.0 °C 1014.6 hPa East 4 km/h 8 km/h 68% 0.00 mm 0.00 W/m2
20:24 27.0 °C 20.0 °C 1014.6 hPa NE 4 km/h 4 km/h 68% 0.00 mm 0.00 W/m2
20:29 27.0 °C 20.0 °C 1014.6 hPa ENE 3 km/h 4 km/h 69% 0.00 mm 0.00 W/m2
20:34 27.0 °C 20.0 °C 1014.6 hPa NE 6 km/h 12 km/h 69% 0.00 mm 0.00 W/m2
20:39 26.0 °C 20.0 °C 1014.6 hPa NE 5 km/h 8 km/h 69% 0.00 mm 0.00 W/m2
20:44 26.0 °C 20.0 °C 1014.6 hPa NE 3 km/h 4 km/h 69% 0.00 mm 0.00 W/m2
20:49 26.0 °C 20.0 °C 1014.6 hPa ENE 4 km/h 8 km/h 70% 0.00 mm 0.00 W/m2
20:54 26.0 °C 21.0 °C 1014.6 hPa NE 6 km/h 8 km/h 70% 0.00 mm 0.00 W/m2
20:59 26.0 °C 20.0 °C 1014.6 hPa East 4 km/h 8 km/h 70% 0.00 mm 0.00 W/m2
21:04 26.0 °C 20.0 °C 1014.6 hPa ENE 5 km/h 8 km/h 70% 0.00 mm 0.00 W/m2
21:09 26.0 °C 20.0 °C 1014.6 hPa NE 3 km/h 8 km/h 70% 0.00 mm 0.00 W/m2
21:14 26.0 °C 20.0 °C 1014.6 hPa ENE 3 km/h 8 km/h 70% 0.00 mm 0.00 W/m2
21:19 26.0 °C 20.0 °C 1014.6 hPa NNE 5 km/h 8 km/h 70% 0.00 mm 0.00 W/m2
21:24 26.0 °C 20.0 °C 1014.6 hPa NE 5 km/h 8 km/h 70% 0.00 mm 0.00 W/m2
21:29 26.0 °C 20.0 °C 1014.9 hPa NE 4 km/h 8 km/h 71% 0.00 mm 0.00 W/m2
21:34 26.0 °C 21.0 °C 1014.9 hPa NNE 6 km/h 8 km/h 71% 0.00 mm 0.00 W/m2
21:39 26.0 °C 20.0 °C 1014.9 hPa NNE 4 km/h 4 km/h 71% 0.00 mm 0.00 W/m2
21:44 26.0 °C 20.0 °C 1014.9 hPa NNE 4 km/h 4 km/h 71% 0.00 mm 0.00 W/m2
21:49 26.0 °C 20.0 °C 1014.9 hPa NNE 4 km/h 4 km/h 71% 0.00 mm 0.00 W/m2
21:54 26.0 °C 20.0 °C 1014.9 hPa Calm   4 km/h 71% 0.00 mm 0.00 W/m2
21:59 26.0 °C 20.0 °C 1014.9 hPa East 3 km/h 4 km/h 71% 0.00 mm 0.00 W/m2
22:04 26.0 °C 20.0 °C 1014.9 hPa NE 1 km/h 4 km/h 72% 0.00 mm 0.00 W/m2
22:09 26.0 °C 20.0 °C 1014.9 hPa Calm     72% 0.00 mm 0.00 W/m2
22:14 26.0 °C 20.0 °C 1014.9 hPa NNE 2 km/h 4 km/h 72% 0.00 mm 0.00 W/m2
22:19 26.0 °C 20.0 °C 1014.9 hPa North 5 km/h 8 km/h 72% 0.00 mm 0.00 W/m2
22:24 26.0 °C 20.0 °C 1014.9 hPa North 5 km/h 8 km/h 73% 0.00 mm 0.00 W/m2
22:29 26.0 °C 21.0 °C 1014.9 hPa NNE 5 km/h 8 km/h 74% 0.00 mm 0.00 W/m2
22:34 26.0 °C 21.0 °C 1014.9 hPa North 2 km/h 4 km/h 74% 0.00 mm 0.00 W/m2
22:39 26.0 °C 21.0 °C 1014.9 hPa North 4 km/h 4 km/h 74% 0.00 mm 0.00 W/m2
22:44 26.0 °C 21.0 °C 1014.9 hPa North 4 km/h 8 km/h 75% 0.00 mm 0.00 W/m2
22:49 25.0 °C 21.0 °C 1014.9 hPa NW 5 km/h 8 km/h 76% 0.00 mm 0.00 W/m2
22:54 25.0 °C 21.0 °C 1014.9 hPa NNW 5 km/h 8 km/h 78% 0.00 mm 0.00 W/m2
22:59 25.0 °C 21.0 °C 1014.9 hPa North 6 km/h 8 km/h 79% 0.00 mm 0.00 W/m2
23:04 25.0 °C 21.0 °C 1014.9 hPa NW 3 km/h 4 km/h 79% 0.00 mm 0.00 W/m2
23:09 25.0 °C 21.0 °C 1014.9 hPa North 3 km/h 4 km/h 79% 0.00 mm 0.00 W/m2
23:14 25.0 °C 21.0 °C 1014.6 hPa North 4 km/h 4 km/h 79% 0.00 mm 0.00 W/m2
23:19 25.0 °C 21.0 °C 1014.6 hPa Calm     79% 0.00 mm 0.00 W/m2
23:24 25.0 °C 21.0 °C 1014.6 hPa Calm     80% 0.00 mm 0.00 W/m2
23:29 25.0 °C 21.0 °C 1014.6 hPa NNE 3 km/h 4 km/h 79% 0.00 mm 0.00 W/m2
23:34 25.0 °C 21.0 °C 1014.6 hPa NNE 5 km/h 8 km/h 78% 0.00 mm 0.00 W/m2
23:39 25.0 °C 21.0 °C 1014.6 hPa North 4 km/h 8 km/h 78% 0.00 mm 0.00 W/m2
23:44 25.0 °C 21.0 °C 1014.6 hPa NNW 6 km/h 8 km/h 78% 0.00 mm 0.00 W/m2
23:49 25.0 °C 21.0 °C 1014.6 hPa North 5 km/h 8 km/h 79% 0.00 mm 0.00 W/m2
23:54 25.0 °C 21.0 °C 1014.6 hPa Calm     80% 0.00 mm 0.00 W/m2
23:59 25.0 °C 21.0 °C 1014.6 hPa NNE 1 km/h 4 km/h 80% 0.00 mm 0.00 W/m2
PIMOHWEATHER Philippines
Compliments of Weather Underground - 2 mb